Location: Bonaustraße
(48.4603°N, 11.9280°E)
Time: 19:06:08
(UTC+02:00)

Tiangong - Pass Details

Date: 03 October 2021
Orbit: 382 x 385 km, 41.5° (Epoch: 18 October)

Event Time Altitude Azimuth Distance (km) Brightness Sun altitude
Exits shadow 05:30:57 23° 177° (S) 874 2.7 -17.9°
Drops below altitude 10° 05:33:21 10° 127° (SE) 1,394 4.4 -17.5°
Sets 05:35:40 0° 112° (ESE) 2,246 5.9 -17.1°
